Location: Demmingen
(48.6757°N, 10.4375°E)
Time: 02:16:53
(UTC+00:00)

Cosmos 1745 Rocket - Pass Details

Date: 13 August 2024
Orbit: 951 x 998 km, 83.0° (Epoch: 08 September)

Event Time Altitude Azimuth Distance (km) Brightness Sun altitude
Rises 00:20:54 0° 2° (N) 3,640 8.3 -25.5°
Reaches altitude 10° 00:25:03 10° 29° (NNE) 2,692 7.3 -25.3°
Maximum altitude 00:27:49 13° 56° (ENE) 2,466 6.7 -25.1°
Drops below altitude 10° 00:30:36 10° 84° (E) 2,693 6.6 -25.0°
Sets 00:34:44 0° 110° (ESE) 3,642 7.0 -24.8°
